Weather History for Raton, NM

Change the Weather History Date:

Wednesday, October 2, 2013

  Actual Average (KTAD) Record (KTAD)
Temperature  
Mean Temperature 58 °F 58 °F  
Max Temperature 79 °F 73 °F 89 °F (1954)
Min Temperature 39 °F 42 °F 30 °F (1999)
Degree Days  
Heating Degree Days 6 8  
Month to date heating degree days 16  
Since 1 July heating degree days 126  
Cooling Degree Days 0 0  
Month to date cooling degree days 0  
Year to date cooling degree days 716  
Growing Degree Days 8 (Base 50)    
Moisture  
Dew Point 30 °F    
Average Humidity 43    
Maximum Humidity 86    
Minimum Humidity 11    
Precipitation  
Precipitation 0.00 in 0.03 in 0.18 in (1998)
Month to date precipitation 0.06  
Year to date precipitation 11.76  
Sea Level Pressure  
Sea Level Pressure 29.81 in    
Wind  
Wind Speed 5 mph (East)    
Max Wind Speed 10 mph    
Max Gust Speed 16 mph    
Visibility 10 miles    
Events      
T = Trace of Precipitation, MM = Missing Value Source: NWS Daily Summary

Daily Weather History Graph

Daily Weather History Graph

Search for Another Location

Airport:

Trip Planner

Search our weather history database for the weather conditions in past years. The results will help you decide how hot, cold, wet, or windy it might be!

Date:

Astronomy

Oct. 02, 2013 Rise Set
Actual Time 6:54 AM MDT 6:39 PM MDT
Civil Twilight 6:28 AM MDT 7:05 PM MDT
Nautical Twilight 5:58 AM MDT 7:35 PM MDT
Astronomical Twilight 5:28 AM MDT 8:05 PM MDT
Moon 4:32 AM MDT (10/2) 5:14 PM MDT (10/2)
Length of Visible Light 12h 36m
Length of Day
11h 45m
Waning Crescent, 6% of the Moon is Illuminated
Oct 2
Waning Crescent
Oct 4
New
Oct 11
First Quarter
Oct 18
Full
Oct 26
Last Quarter

Hourly Weather History & Observations

Time (MDT) Temp. Windchill Dew Point Humidity Pressure Visibility Wind Dir Wind Speed Gust Speed Precip Events Conditions
12:53 AM 46.9 °F - 39.0 °F 74% 29.86 in 10.0 mi NE 4.6 mph - N/A   Clear
1:53 AM 46.9 °F - 39.0 °F 74% 29.86 in 10.0 mi NE 6.9 mph - N/A   Clear
2:53 AM 45.0 °F 41.8 °F 39.0 °F 80% 29.84 in 10.0 mi NNE 5.8 mph - N/A   Clear
3:53 AM 42.1 °F 37.7 °F 37.9 °F 85% 29.84 in 10.0 mi NE 6.9 mph - N/A   Clear
4:53 AM 43.0 °F 41.3 °F 37.9 °F 82% 29.84 in 10.0 mi ENE 3.5 mph - N/A   Clear
5:53 AM 42.1 °F 37.7 °F 37.9 °F 85% 29.85 in 10.0 mi NE 6.9 mph - N/A   Clear
6:53 AM 39.9 °F 37.8 °F 36.0 °F 86% 29.89 in 10.0 mi Variable 3.5 mph - N/A   Clear
7:53 AM 45.0 °F 43.5 °F 37.9 °F 76% 29.90 in 10.0 mi NE 3.5 mph - N/A   Clear
8:53 AM 52.0 °F - 39.9 °F 63% 29.89 in 10.0 mi ENE 4.6 mph - N/A   Clear
9:53 AM 62.1 °F - 39.0 °F 43% 29.85 in 10.0 mi East 5.8 mph - N/A   Clear
10:53 AM 70.0 °F - 35.1 °F 28% 29.82 in 10.0 mi East 4.6 mph - N/A   Clear
11:53 AM 73.0 °F - 25.0 °F 17% 29.82 in 10.0 mi Calm Calm - N/A   Clear
12:53 PM 75.9 °F - 24.1 °F 15% 29.80 in 10.0 mi East 6.9 mph - N/A   Clear
1:53 PM 77.0 °F - 21.9 °F 13% 29.76 in 10.0 mi ESE 4.6 mph - N/A   Clear
2:53 PM 78.1 °F - 21.0 °F 12% 29.75 in 10.0 mi Variable 3.5 mph - N/A   Clear
3:53 PM 78.1 °F - 21.9 °F 12% 29.75 in 10.0 mi South 10.4 mph 16.1 mph N/A   Clear
4:53 PM 78.1 °F - 19.9 °F 11% 29.73 in 10.0 mi South 9.2 mph - N/A   Clear
5:53 PM 75.0 °F - 23.0 °F 14% 29.75 in 10.0 mi South 4.6 mph - N/A   Clear
6:53 PM 62.1 °F - 28.0 °F 28% 29.81 in 10.0 mi WNW 5.8 mph - N/A   Clear
7:53 PM 60.1 °F - 25.0 °F 26% 29.81 in 10.0 mi NW 3.5 mph - N/A   Clear
8:53 PM 63.0 °F - 21.9 °F 21% 29.78 in 10.0 mi WSW 5.8 mph - N/A   Clear
9:53 PM 57.0 °F - 27.0 °F 32% 29.77 in 10.0 mi ESE 4.6 mph - N/A   Clear
10:53 PM 55.0 °F - 26.1 °F 33% 29.75 in 10.0 mi SSE 4.6 mph - N/A   Clear
11:53 PM 55.0 °F - 25.0 °F 31% 29.74 in 10.0 mi South 3.5 mph - N/A   Clear